Time,TemperatureF,DewpointF,PressureIn,WindDirection,WindDirectionDegrees,WindSpeedMPH,WindSpeedGustMPH,Humidity,HourlyPrecipIn,Conditions,Clouds,dailyrainin,SoftwareType,DateUTC
2016-02-13 00:01:00,58.6,51.1,30.15,WNW,292,0.0,0.0,76,0.00,CLR,,0.00,WeatherDisplay:10.37,2016-02-13 05:01:00,
2016-02-13 00:06:00,58.4,51.2,30.15,WNW,292,0.0,0.0,77,0.00,CLR,,0.00,WeatherDisplay:10.37,2016-02-13 05:06:00,
2016-02-13 00:12:00,58.2,51.4,30.15,WNW,292,0.0,0.0,78,0.00,CLR,,0.00,WeatherDisplay:10.37,2016-02-13 05:12:00,
2016-02-13 00:17:00,58.0,51.2,30.15,WNW,292,0.0,0.0,78,0.00,CLR,,0.00,WeatherDisplay:10.37,2016-02-13 05:17:00,
2016-02-13 00:22:00,57.8,51.3,30.15,WNW,292,0.0,0.0,79,0.00,CLR,,0.00,WeatherDisplay:10.37,2016-02-13 05:22:00,
2016-02-13 00:27:00,57.7,51.2,30.15,WNW,292,0.0,0.0,79,0.00,CLR,,0.00,WeatherDisplay:10.37,2016-02-13 05:27:00,
2016-02-13 00:32:00,57.6,51.5,30.15,WNW,292,0.0,0.0,80,0.00,CLR,,0.00,WeatherDisplay:10.37,2016-02-13 05:32:00,
2016-02-13 00:43:00,57.4,51.6,30.15,WNW,292,0.0,0.0,81,0.00,CLR,,0.00,WeatherDisplay:10.37,2016-02-13 05:43:00,
2016-02-13 00:48:00,57.3,51.5,30.15,WNW,292,0.0,0.0,81,0.00,CLR,,0.00,WeatherDisplay:10.37,2016-02-13 05:48:00,
2016-02-13 00:53:00,57.2,51.8,30.15,WNW,292,0.0,0.0,82,0.00,CLR,,0.00,WeatherDisplay:10.37,2016-02-13 05:53:00,
2016-02-13 01:03:00,57.0,51.6,30.15,WNW,292,0.0,0.0,82,0.00,CLR,,0.00,WeatherDisplay:10.37,2016-02-13 06:03:00,
2016-02-13 01:09:00,56.9,51.8,30.15,WNW,292,0.0,0.0,83,0.00,CLR,,0.00,WeatherDisplay:10.37,2016-02-13 06:09:00,
2016-02-13 01:15:00,56.9,51.8,30.15,WNW,292,0.0,0.0,83,0.00,CLR,,0.00,WeatherDisplay:10.37,2016-02-13 06:15:00,
2016-02-13 01:20:00,56.7,51.9,30.15,WNW,292,0.0,0.0,84,0.00,CLR,,0.00,WeatherDisplay:10.37,2016-02-13 06:20:00,
2016-02-13 01:25:00,56.6,51.8,30.15,WNW,292,0.0,0.0,84,0.00,CLR,,0.00,WeatherDisplay:10.37,2016-02-13 06:25:00,
2016-02-13 01:30:00,56.4,51.9,30.14,WNW,292,0.0,0.0,85,0.00,CLR,,0.00,WeatherDisplay:10.37,2016-02-13 06:30:00,
2016-02-13 01:35:00,56.3,51.8,30.14,WNW,292,0.0,0.0,85,0.00,CLR,,0.00,WeatherDisplay:10.37,2016-02-13 06:35:00,
2016-02-13 01:40:00,56.2,52.1,30.14,WNW,292,0.0,0.0,86,0.00,CLR,,0.00,WeatherDisplay:10.37,2016-02-13 06:40:00,
2016-02-13 01:51:00,55.8,52.0,30.14,WNW,292,0.0,0.0,87,0.00,CLR,,0.00,WeatherDisplay:10.37,2016-02-13 06:51:00,
2016-02-13 01:56:00,55.8,52.0,30.14,WNW,292,0.0,0.0,87,0.00,CLR,,0.00,WeatherDisplay:10.37,2016-02-13 06:56:00,
2016-02-13 02:01:00,55.5,51.7,30.14,WNW,292,0.0,0.0,87,0.00,CLR,,0.00,WeatherDisplay:10.37,2016-02-13 07:01:00,
2016-02-13 02:06:00,55.4,51.9,30.14,WNW,292,0.0,0.0,88,0.00,CLR,,0.00,WeatherDisplay:10.37,2016-02-13 07:06:00,
2016-02-13 02:11:00,55.3,51.8,30.14,WNW,292,0.0,0.0,88,0.00,CLR,,0.00,WeatherDisplay:10.37,2016-02-13 07:11:00,
2016-02-13 02:22:00,55.1,51.9,30.14,WNW,292,0.0,0.0,89,0.00,CLR,,0.00,WeatherDisplay:10.37,2016-02-13 07:22:00,
2016-02-13 02:27:00,54.9,51.7,30.14,WNW,292,0.0,0.0,89,0.00,CLR,,0.00,WeatherDisplay:10.37,2016-02-13 07:27:00,
2016-02-13 02:33:00,54.9,52.0,30.13,WNW,292,1.2,0.0,90,0.00,CLR,,0.00,WeatherDisplay:10.37,2016-02-13 07:33:00,
2016-02-13 02:38:00,54.8,51.9,30.13,WNW,292,0.0,0.0,90,0.00,CLR,,0.00,WeatherDisplay:10.37,2016-02-13 07:38:00,
2016-02-13 02:43:00,54.7,51.8,30.13,WNW,292,0.0,0.0,90,0.00,CLR,,0.00,WeatherDisplay:10.37,2016-02-13 07:43:00,
2016-02-13 02:48:00,54.6,51.7,30.13,WNW,292,0.0,0.0,90,0.00,CLR,,0.00,WeatherDisplay:10.37,2016-02-13 07:48:00,
2016-02-13 02:59:00,54.5,51.9,30.13,WNW,292,0.0,0.1,91,0.00,CLR,,0.00,WeatherDisplay:10.37,2016-02-13 07:59:00,
2016-02-13 03:04:00,54.6,52.0,30.13,WNW,296,0.0,0.0,91,0.00,CLR,,0.00,WeatherDisplay:10.37,2016-02-13 08:04:00,
2016-02-13 03:09:00,54.7,52.4,30.13,WNW,296,1.2,0.0,92,0.00,CLR,,0.00,WeatherDisplay:10.37,2016-02-13 08:09:00,
2016-02-13 03:14:00,54.7,52.4,30.12,WNW,296,0.0,0.0,92,0.00,CLR,,0.00,WeatherDisplay:10.37,2016-02-13 08:14:00,
2016-02-13 03:24:00,54.7,52.4,30.12,WNW,296,0.0,0.0,92,0.00,CLR,,0.00,WeatherDisplay:10.37,2016-02-13 08:24:00,
2016-02-13 03:29:00,54.7,52.4,30.12,WNW,296,0.0,0.0,92,0.00,CLR,,0.00,WeatherDisplay:10.37,2016-02-13 08:29:00,
2016-02-13 03:35:00,54.6,52.3,30.12,WNW,296,1.2,0.0,92,0.00,CLR,,0.00,WeatherDisplay:10.37,2016-02-13 08:35:00,
2016-02-13 03:40:00,54.6,52.3,30.12,WNW,296,2.3,0.0,92,0.00,CLR,,0.00,WeatherDisplay:10.37,2016-02-13 08:40:00,
2016-02-13 03:45:00,54.7,52.4,30.12,WNW,297,2.3,2.3,92,0.00,CLR,,0.00,WeatherDisplay:10.37,2016-02-13 08:45:00,
2016-02-13 03:50:00,54.7,52.4,30.12,WNW,297,0.0,1.0,92,0.00,CLR,,0.00,WeatherDisplay:10.37,2016-02-13 08:50:00,
2016-02-13 03:55:00,54.6,52.3,30.12,WNW,297,0.0,0.0,92,0.00,CLR,,0.00,WeatherDisplay:10.37,2016-02-13 08:55:00,
2016-02-13 04:01:00,54.6,52.6,30.12,WNW,297,1.0,1.0,93,0.00,CLR,,0.00,WeatherDisplay:10.37,2016-02-13 09:01:00,
2016-02-13 04:06:00,54.6,52.6,30.12,WNW,297,1.2,0.0,93,0.00,CLR,,0.00,WeatherDisplay:10.37,2016-02-13 09:06:00,
2016-02-13 04:11:00,54.7,52.7,30.12,WNW,297,0.0,0.0,93,0.00,CLR,,0.00,WeatherDisplay:10.37,2016-02-13 09:11:00,
2016-02-13 04:21:00,54.5,52.5,30.12,WNW,297,0.0,0.0,93,0.00,CLR,,0.00,WeatherDisplay:10.37,2016-02-13 09:21:00,
2016-02-13 04:27:00,54.4,52.4,30.12,WNW,297,0.0,0.0,93,0.00,CLR,,0.00,WeatherDisplay:10.37,2016-02-13 09:27:00,
2016-02-13 04:32:00,54.4,52.4,30.12,WNW,297,0.0,0.0,93,0.00,CLR,,0.00,WeatherDisplay:10.37,2016-02-13 09:32:00,
2016-02-13 04:37:00,54.5,52.5,30.12,WNW,297,1.2,0.0,93,0.00,CLR,,0.00,WeatherDisplay:10.37,2016-02-13 09:37:00,
2016-02-13 04:42:00,54.4,52.4,30.12,WNW,297,1.2,0.0,93,0.00,CLR,,0.00,WeatherDisplay:10.37,2016-02-13 09:42:00,
2016-02-13 04:47:00,54.4,52.4,30.12,WNW,297,0.0,0.0,93,0.00,CLR,,0.00,WeatherDisplay:10.37,2016-02-13 09:47:00,
2016-02-13 04:53:00,54.4,52.7,30.12,WNW,297,0.0,0.0,94,0.00,CLR,,0.00,WeatherDisplay:10.37,2016-02-13 09:53:00,
2016-02-13 04:59:00,54.4,52.7,30.12,WNW,297,0.0,0.0,94,0.00,CLR,,0.00,WeatherDisplay:10.37,2016-02-13 09:59:00,
2016-02-13 05:04:00,54.4,52.7,30.13,WNW,297,0.0,0.0,94,0.00,CLR,,0.00,WeatherDisplay:10.37,2016-02-13 10:04:00,
2016-02-13 05:09:00,54.4,52.7,30.12,WNW,297,0.0,0.0,94,0.00,CLR,,0.00,WeatherDisplay:10.37,2016-02-13 10:09:00,
2016-02-13 05:14:00,54.4,52.7,30.13,WNW,297,0.0,0.0,94,0.00,CLR,,0.00,WeatherDisplay:10.37,2016-02-13 10:14:00,
2016-02-13 05:19:00,54.5,52.8,30.13,WNW,297,0.0,0.0,94,0.00,CLR,,0.00,WeatherDisplay:10.37,2016-02-13 10:19:00,
2016-02-13 05:24:00,54.5,52.8,30.13,WNW,297,1.2,0.0,94,0.00,CLR,,0.00,WeatherDisplay:10.37,2016-02-13 10:24:00,
2016-02-13 05:29:00,54.5,52.8,30.13,WNW,297,0.0,0.0,94,0.00,CLR,,0.00,WeatherDisplay:10.37,2016-02-13 10:29:00,
2016-02-13 05:34:00,54.5,52.8,30.13,WNW,297,0.0,0.0,94,0.00,CLR,,0.00,WeatherDisplay:10.37,2016-02-13 10:34:00,
2016-02-13 05:39:00,54.4,52.7,30.13,WNW,297,0.0,0.0,94,0.00,CLR,,0.00,WeatherDisplay:10.37,2016-02-13 10:39:00,
2016-02-13 05:44:00,54.5,52.8,30.13,WNW,297,1.2,0.0,94,0.00,CLR,,0.00,WeatherDisplay:10.37,2016-02-13 10:44:00,
2016-02-13 05:50:00,54.5,52.8,30.13,WNW,297,0.0,0.0,94,0.00,CLR,,0.00,WeatherDisplay:10.37,2016-02-13 10:50:00,
2016-02-13 05:55:00,54.5,53.1,30.14,WNW,297,0.0,1.0,95,0.00,CLR,,0.00,WeatherDisplay:10.37,2016-02-13 10:55:00,
2016-02-13 06:00:00,54.6,53.2,30.15,WNW,297,0.0,0.0,95,0.00,CLR,,0.00,WeatherDisplay:10.37,2016-02-13 11:00:00,
2016-02-13 06:05:00,54.6,52.9,30.15,WNW,297,0.0,1.0,94,0.00,CLR,,0.00,WeatherDisplay:10.37,2016-02-13 11:05:00,
2016-02-13 06:10:00,54.6,52.9,30.15,WNW,297,1.2,0.0,94,0.00,CLR,,0.00,WeatherDisplay:10.37,2016-02-13 11:10:00,
2016-02-13 06:15:00,54.5,53.1,30.15,WNW,293,0.0,0.0,95,0.00,CLR,,0.00,WeatherDisplay:10.37,2016-02-13 11:15:00,
2016-02-13 06:21:00,54.5,53.1,30.15,WNW,293,0.0,0.0,95,0.00,CLR,,0.00,WeatherDisplay:10.37,2016-02-13 11:21:00,
2016-02-13 06:31:00,54.6,53.2,30.16,WNW,293,1.2,0.0,95,0.00,CLR,,0.00,WeatherDisplay:10.37,2016-02-13 11:31:00,
2016-02-13 06:36:00,54.7,53.3,30.16,WNW,293,0.0,0.0,95,0.00,CLR,,0.00,WeatherDisplay:10.37,2016-02-13 11:36:00,
2016-02-13 06:41:00,54.6,53.2,30.16,WNW,293,0.0,0.0,95,0.00,CLR,,0.00,WeatherDisplay:10.37,2016-02-13 11:41:00,
2016-02-13 06:46:00,54.7,53.3,30.16,WNW,293,1.2,0.0,95,0.00,CLR,,0.00,WeatherDisplay:10.37,2016-02-13 11:46:00,
2016-02-13 06:51:00,54.6,53.2,30.16,WNW,296,2.3,2.3,95,0.00,CLR,,0.00,WeatherDisplay:10.37,2016-02-13 11:51:00,
2016-02-13 06:56:00,54.7,53.3,30.17,WNW,296,1.2,0.0,95,0.00,CLR,,0.00,WeatherDisplay:10.37,2016-02-13 11:56:00,
2016-02-13 07:02:00,54.8,53.4,30.17,WNW,295,0.0,0.0,95,0.00,CLR,,0.00,WeatherDisplay:10.37,2016-02-13 12:02:00,
2016-02-13 07:07:00,54.9,53.5,30.17,WNW,295,0.0,0.0,95,0.00,CLR,,0.00,WeatherDisplay:10.37,2016-02-13 12:07:00,
2016-02-13 07:12:00,55.1,53.7,30.17,WNW,295,0.0,0.0,95,0.00,CLR,,0.00,WeatherDisplay:10.37,2016-02-13 12:12:00,
2016-02-13 07:17:00,55.2,53.8,30.17,WNW,293,2.3,2.3,95,0.00,CLR,,0.00,WeatherDisplay:10.37,2016-02-13 12:17:00,
2016-02-13 07:22:00,55.4,54.0,30.17,WNW,293,1.2,0.0,95,0.00,CLR,,0.00,WeatherDisplay:10.37,2016-02-13 12:22:00,
2016-02-13 07:27:00,55.7,54.3,30.17,West,271,3.5,3.5,95,0.00,CLR,,0.00,WeatherDisplay:10.37,2016-02-13 12:27:00,
2016-02-13 07:32:00,55.9,54.5,30.17,West,266,3.5,3.5,95,0.00,CLR,,0.00,WeatherDisplay:10.37,2016-02-13 12:32:00,
2016-02-13 07:38:00,56.1,54.7,30.17,West,273,2.3,2.3,95,0.00,CLR,,0.00,WeatherDisplay:10.37,2016-02-13 12:38:00,
2016-02-13 07:43:00,56.4,55.0,30.17,West,272,1.2,0.0,95,0.00,CLR,,0.00,WeatherDisplay:10.37,2016-02-13 12:43:00,
2016-02-13 07:48:00,56.7,55.0,30.17,WNW,284,2.3,2.3,94,0.00,CLR,,0.00,WeatherDisplay:10.37,2016-02-13 12:48:00,
2016-02-13 07:53:00,57.0,55.3,30.17,WNW,282,3.5,3.5,94,0.00,CLR,,0.00,WeatherDisplay:10.37,2016-02-13 12:53:00,
2016-02-13 07:58:00,57.4,55.7,30.17,WNW,286,3.5,3.5,94,0.00,CLR,,0.00,WeatherDisplay:10.37,2016-02-13 12:58:00,
2016-02-13 08:04:00,57.8,56.1,30.18,West,281,5.8,5.8,94,0.00,CLR,,0.00,WeatherDisplay:10.37,2016-02-13 13:04:00,
2016-02-13 08:09:00,58.2,56.2,30.18,West,279,4.6,4.6,93,0.00,CLR,,0.00,WeatherDisplay:10.37,2016-02-13 13:09:00,
2016-02-13 08:14:00,58.6,56.3,30.18,West,281,4.0,4.0,92,0.00,CLR,,0.00,WeatherDisplay:10.37,2016-02-13 13:14:00,
2016-02-13 08:19:00,58.9,56.6,30.18,WNW,290,3.5,3.5,92,0.00,CLR,,0.00,WeatherDisplay:10.37,2016-02-13 13:19:00,
2016-02-13 08:25:00,59.5,57.1,30.18,WNW,285,1.0,6.0,92,0.00,CLR,,0.00,WeatherDisplay:10.37,2016-02-13 13:25:00,
2016-02-13 08:30:00,60.0,57.4,30.18,WNW,283,4.6,4.6,91,0.00,CLR,,0.00,WeatherDisplay:10.37,2016-02-13 13:30:00,
2016-02-13 08:35:00,60.4,57.5,30.18,WNW,293,3.0,7.0,90,0.00,CLR,,0.00,WeatherDisplay:10.37,2016-02-13 13:35:00,
2016-02-13 08:41:00,60.9,57.6,30.18,WNW,295,6.9,6.9,89,0.00,CLR,,0.00,WeatherDisplay:10.37,2016-02-13 13:41:00,
2016-02-13 08:46:00,61.4,58.1,30.18,NW,306,3.5,3.5,89,0.00,CLR,,0.00,WeatherDisplay:10.37,2016-02-13 13:46:00,
2016-02-13 08:51:00,61.8,58.2,30.18,West,265,5.8,5.8,88,0.00,CLR,,0.00,WeatherDisplay:10.37,2016-02-13 13:51:00,
2016-02-13 08:56:00,62.3,58.7,30.18,West,277,7.0,7.0,88,0.00,CLR,,0.00,WeatherDisplay:10.37,2016-02-13 13:56:00,
2016-02-13 09:01:00,62.8,58.5,30.19,NW,317,11.5,11.5,86,0.00,CLR,,0.00,WeatherDisplay:10.37,2016-02-13 14:01:00,
2016-02-13 09:06:00,63.2,58.9,30.18,NW,308,8.1,8.1,86,0.00,CLR,,0.00,WeatherDisplay:10.37,2016-02-13 14:06:00,
2016-02-13 09:11:00,63.6,59.0,30.19,NW,306,9.2,9.2,85,0.00,CLR,,0.00,WeatherDisplay:10.37,2016-02-13 14:11:00,
2016-02-13 09:16:00,63.9,59.3,30.19,NW,319,7.0,7.0,85,0.00,CLR,,0.00,WeatherDisplay:10.37,2016-02-13 14:16:00,
2016-02-13 09:21:00,64.4,59.5,30.19,NW,315,7.0,7.0,84,0.00,CLR,,0.00,WeatherDisplay:10.37,2016-02-13 14:21:00,
2016-02-13 09:26:00,64.5,59.2,30.19,NW,309,7.0,7.0,83,0.00,CLR,,0.00,WeatherDisplay:10.37,2016-02-13 14:26:00,
2016-02-13 09:31:00,64.9,59.6,30.19,NNW,327,5.8,5.8,83,0.00,CLR,,0.00,WeatherDisplay:10.37,2016-02-13 14:31:00,
2016-02-13 09:36:00,65.4,60.1,30.19,WNW,296,8.0,8.0,83,0.00,CLR,,0.00,WeatherDisplay:10.37,2016-02-13 14:36:00,
2016-02-13 09:41:00,65.7,60.1,30.19,WNW,300,6.9,6.9,82,0.00,CLR,,0.00,WeatherDisplay:10.37,2016-02-13 14:41:00,
2016-02-13 09:47:00,66.3,60.3,30.19,NW,315,12.7,12.7,81,0.00,CLR,,0.00,WeatherDisplay:10.37,2016-02-13 14:47:00,
2016-02-13 09:52:00,66.8,60.4,30.19,NW,307,10.4,10.4,80,0.00,CLR,,0.00,WeatherDisplay:10.37,2016-02-13 14:52:00,
2016-02-13 09:58:00,67.1,60.4,30.19,NW,314,10.4,10.4,79,0.00,CLR,,0.00,WeatherDisplay:10.37,2016-02-13 14:58:00,
2016-02-13 10:03:00,67.3,60.2,30.19,NNW,329,11.5,11.5,78,0.00,CLR,,0.00,WeatherDisplay:10.37,2016-02-13 15:03:00,
2016-02-13 10:08:00,67.3,60.2,30.19,NNE,12,10.4,10.4,78,0.00,CLR,,0.00,WeatherDisplay:10.37,2016-02-13 15:08:00,
2016-02-13 10:13:00,67.6,60.1,30.19,NW,313,15.0,15.0,77,0.00,CLR,,0.00,WeatherDisplay:10.37,2016-02-13 15:13:00,
2016-02-13 10:18:00,67.3,59.8,30.19,NW,316,11.5,11.5,77,0.00,CLR,,0.00,WeatherDisplay:10.37,2016-02-13 15:18:00,
2016-02-13 10:23:00,67.0,59.5,30.20,North,5,15.0,15.0,77,0.00,CLR,,0.00,WeatherDisplay:10.37,2016-02-13 15:23:00,
2016-02-13 10:28:00,67.3,60.2,30.20,NNW,344,8.1,8.1,78,0.00,CLR,,0.00,WeatherDisplay:10.37,2016-02-13 15:28:00,
2016-02-13 10:33:00,68.0,60.5,30.20,North,355,12.7,12.7,77,0.00,CLR,,0.00,WeatherDisplay:10.37,2016-02-13 15:33:00,
2016-02-13 10:38:00,68.1,60.6,30.20,NNW,333,12.0,12.0,77,0.00,CLR,,0.00,WeatherDisplay:10.37,2016-02-13 15:38:00,
2016-02-13 10:44:00,68.0,60.5,30.20,North,360,10.4,10.4,77,0.00,CLR,,0.00,WeatherDisplay:10.37,2016-02-13 15:44:00,
2016-02-13 10:54:00,69.0,60.0,30.19,NNW,338,11.5,11.5,73,0.00,CLR,,0.00,WeatherDisplay:10.37,2016-02-13 15:54:00,
2016-02-13 10:59:00,69.2,60.2,30.19,NW,311,12.0,12.0,73,0.00,CLR,,0.00,WeatherDisplay:10.37,2016-02-13 15:59:00,
2016-02-13 11:04:00,69.5,60.5,30.19,NW,305,9.2,9.2,73,0.00,CLR,,0.00,WeatherDisplay:10.37,2016-02-13 16:04:00,
2016-02-13 11:09:00,69.6,60.2,30.19,WNW,290,10.0,10.0,72,0.00,CLR,,0.00,WeatherDisplay:10.37,2016-02-13 16:09:00,
2016-02-13 11:15:00,69.8,60.4,30.19,WNW,303,1.0,18.0,72,0.00,CLR,,0.00,WeatherDisplay:10.37,2016-02-13 16:15:00,
2016-02-13 11:20:00,70.5,60.2,30.18,WNW,298,4.6,4.6,70,0.00,CLR,,0.00,WeatherDisplay:10.37,2016-02-13 16:20:00,
2016-02-13 11:30:00,71.0,60.3,30.18,North,360,7.0,7.0,69,0.00,CLR,,0.00,WeatherDisplay:10.37,2016-02-13 16:30:00,
2016-02-13 11:35:00,71.2,60.1,30.18,NNW,328,3.5,3.5,68,0.00,CLR,,0.00,WeatherDisplay:10.37,2016-02-13 16:35:00,
2016-02-13 11:41:00,71.6,59.2,30.18,West,271,8.1,8.1,65,0.00,CLR,,0.00,WeatherDisplay:10.37,2016-02-13 16:41:00,
2016-02-13 11:47:00,71.7,59.3,30.17,WNW,300,6.0,6.0,65,0.00,CLR,,0.00,WeatherDisplay:10.37,2016-02-13 16:47:00,
2016-02-13 11:52:00,71.7,59.3,30.17,NW,306,5.8,5.8,65,0.00,CLR,,0.00,WeatherDisplay:10.37,2016-02-13 16:52:00,
2016-02-13 11:57:00,71.5,59.1,30.17,NNW,328,6.9,6.9,65,0.00,CLR,,0.00,WeatherDisplay:10.37,2016-02-13 16:57:00,
2016-02-13 12:02:00,72.0,59.6,30.17,NW,325,0.0,1.8,65,0.00,CLR,,0.00,WeatherDisplay:10.37,2016-02-13 17:02:00,
2016-02-13 12:07:00,72.3,59.4,30.17,NNW,334,5.8,5.8,64,0.00,CLR,,0.00,WeatherDisplay:10.37,2016-02-13 17:07:00,
2016-02-13 12:12:00,72.7,59.4,30.17,NNW,336,6.0,6.0,63,0.00,CLR,,0.00,WeatherDisplay:10.37,2016-02-13 17:12:00,
2016-02-13 12:23:00,73.3,59.0,30.16,NW,321,3.5,3.5,61,0.00,CLR,,0.00,WeatherDisplay:10.37,2016-02-13 17:23:00,
2016-02-13 12:28:00,73.8,59.0,30.16,NNW,343,3.5,3.5,60,0.00,CLR,,0.00,WeatherDisplay:10.37,2016-02-13 17:28:00,
2016-02-13 12:33:00,74.1,58.9,30.16,North,355,3.0,3.0,59,0.00,CLR,,0.00,WeatherDisplay:10.37,2016-02-13 17:33:00,
2016-02-13 12:38:00,74.6,58.8,30.15,NNE,13,5.8,5.8,58,0.00,CLR,,0.00,WeatherDisplay:10.37,2016-02-13 17:38:00,
2016-02-13 12:43:00,74.4,57.7,30.15,NNE,22,3.5,3.5,56,0.00,CLR,,0.00,WeatherDisplay:10.37,2016-02-13 17:43:00,
2016-02-13 12:48:00,74.3,58.1,30.15,NW,307,11.5,11.5,57,0.00,CLR,,0.00,WeatherDisplay:10.37,2016-02-13 17:48:00,
2016-02-13 12:53:00,74.5,57.8,30.14,NW,316,5.8,5.8,56,0.00,CLR,,0.00,WeatherDisplay:10.37,2016-02-13 17:53:00,
2016-02-13 12:58:00,75.0,57.7,30.14,North,355,6.9,6.9,55,0.00,CLR,,0.00,WeatherDisplay:10.37,2016-02-13 17:58:00,
2016-02-13 13:09:00,75.2,56.4,30.13,NNW,346,4.6,4.6,52,0.00,CLR,,0.00,WeatherDisplay:10.37,2016-02-13 18:09:00,
2016-02-13 13:14:00,75.2,55.8,30.13,NW,321,3.5,0.0,51,0.00,CLR,,0.00,WeatherDisplay:10.37,2016-02-13 18:14:00,
2016-02-13 13:19:00,75.2,55.3,30.13,NNW,339,9.2,9.2,50,0.00,CLR,,0.00,WeatherDisplay:10.37,2016-02-13 18:19:00,
2016-02-13 13:25:00,74.6,55.3,30.13,North,349,3.0,10.0,51,0.00,CLR,,0.00,WeatherDisplay:10.37,2016-02-13 18:25:00,
2016-02-13 13:30:00,74.8,54.9,30.13,ENE,57,5.8,5.8,50,0.00,CLR,,0.00,WeatherDisplay:10.37,2016-02-13 18:30:00,
2016-02-13 13:35:00,75.1,55.8,30.12,North,11,2.0,6.0,51,0.00,CLR,,0.00,WeatherDisplay:10.37,2016-02-13 18:35:00,
2016-02-13 13:40:00,75.0,54.5,30.12,NNW,342,2.0,10.0,49,0.00,CLR,,0.00,WeatherDisplay:10.37,2016-02-13 18:40:00,
2016-02-13 13:50:00,74.8,54.4,30.11,NE,55,4.6,4.6,49,0.00,CLR,,0.00,WeatherDisplay:10.37,2016-02-13 18:50:00,
2016-02-13 13:56:00,74.7,54.8,30.11,NW,325,5.8,5.8,50,0.00,CLR,,0.00,WeatherDisplay:10.37,2016-02-13 18:56:00,
2016-02-13 14:01:00,75.0,54.0,30.11,North,5,3.5,3.5,48,0.00,CLR,,0.00,WeatherDisplay:10.37,2016-02-13 19:01:00,
2016-02-13 14:07:00,75.5,53.3,30.11,NE,34,6.9,6.9,46,0.00,CLR,,0.00,WeatherDisplay:10.37,2016-02-13 19:07:00,
2016-02-13 14:13:00,75.4,54.3,30.11,North,360,5.8,5.8,48,0.00,CLR,,0.00,WeatherDisplay:10.37,2016-02-13 19:13:00,
2016-02-13 14:18:00,75.6,53.9,30.10,North,5,3.5,3.5,47,0.00,CLR,,0.00,WeatherDisplay:10.37,2016-02-13 19:18:00,
2016-02-13 14:23:00,75.8,54.1,30.11,NNE,22,5.8,5.8,47,0.00,CLR,,0.00,WeatherDisplay:10.37,2016-02-13 19:23:00,
2016-02-13 14:28:00,75.3,54.3,30.10,North,9,4.0,4.0,48,0.00,CLR,,0.00,WeatherDisplay:10.37,2016-02-13 19:28:00,
2016-02-13 14:33:00,75.4,54.3,30.10,North,9,5.8,5.8,48,0.00,CLR,,0.00,WeatherDisplay:10.37,2016-02-13 19:33:00,
2016-02-13 14:38:00,75.0,54.5,30.10,NE,53,3.5,3.5,49,0.00,CLR,,0.00,WeatherDisplay:10.37,2016-02-13 19:38:00,
2016-02-13 14:43:00,74.4,54.0,30.10,NNE,22,6.9,6.9,49,0.00,CLR,,0.00,WeatherDisplay:10.37,2016-02-13 19:43:00,
2016-02-13 14:54:00,73.2,54.5,30.10,NE,49,6.9,6.9,52,0.00,CLR,,0.00,WeatherDisplay:10.37,2016-02-13 19:54:00,
2016-02-13 14:59:00,72.5,54.4,30.10,ENE,67,6.0,6.0,53,0.00,CLR,,0.00,WeatherDisplay:10.37,2016-02-13 19:59:00,
2016-02-13 15:04:00,72.4,54.3,30.10,NNE,24,5.8,5.8,53,0.00,CLR,,0.00,WeatherDisplay:10.37,2016-02-13 20:04:00,
2016-02-13 15:09:00,72.1,54.5,30.10,NE,49,6.9,6.9,54,0.00,CLR,,0.00,WeatherDisplay:10.37,2016-02-13 20:09:00,
2016-02-13 15:14:00,71.6,55.1,30.10,NE,42,6.9,6.9,56,0.00,CLR,,0.00,WeatherDisplay:10.37,2016-02-13 20:14:00,
2016-02-13 15:20:00,71.9,54.9,30.10,NNE,28,10.0,10.0,55,0.00,CLR,,0.00,WeatherDisplay:10.37,2016-02-13 20:20:00,
2016-02-13 15:25:00,72.6,55.0,30.11,North,5,7.0,7.0,54,0.00,CLR,,0.00,WeatherDisplay:10.37,2016-02-13 20:25:00,
2016-02-13 15:31:00,73.0,55.9,30.10,NE,42,9.2,9.2,55,0.00,CLR,,0.00,WeatherDisplay:10.37,2016-02-13 20:31:00,
2016-02-13 15:36:00,72.8,55.2,30.11,ENE,64,10.4,10.4,54,0.00,CLR,,0.00,WeatherDisplay:10.37,2016-02-13 20:36:00,
2016-02-13 15:41:00,72.0,55.4,30.11,NE,51,5.8,5.8,56,0.00,CLR,,0.00,WeatherDisplay:10.37,2016-02-13 20:41:00,
2016-02-13 15:46:00,71.0,55.5,30.11,NE,50,9.2,9.2,58,0.00,CLR,,0.00,WeatherDisplay:10.37,2016-02-13 20:46:00,
2016-02-13 16:02:00,70.2,55.2,30.11,ENE,66,6.9,6.9,59,0.00,CLR,,0.00,WeatherDisplay:10.37,2016-02-13 21:02:00,
2016-02-13 16:07:00,70.0,55.5,30.11,NE,53,11.5,11.5,60,0.00,CLR,,0.00,WeatherDisplay:10.37,2016-02-13 21:07:00,
2016-02-13 16:12:00,70.1,55.6,30.11,NE,40,6.9,6.9,60,0.00,CLR,,0.00,WeatherDisplay:10.37,2016-02-13 21:12:00,
2016-02-13 16:17:00,70.6,56.0,30.11,NE,55,4.6,4.6,60,0.00,CLR,,0.00,WeatherDisplay:10.37,2016-02-13 21:17:00,
2016-02-13 16:22:00,70.4,55.4,30.11,NNW,341,6.9,6.9,59,0.00,CLR,,0.00,WeatherDisplay:10.37,2016-02-13 21:22:00,
2016-02-13 16:27:00,70.4,55.4,30.11,NE,38,6.9,6.9,59,0.00,CLR,,0.00,WeatherDisplay:10.37,2016-02-13 21:27:00,
2016-02-13 16:32:00,69.9,55.8,30.11,ENE,70,5.8,5.8,61,0.00,CLR,,0.00,WeatherDisplay:10.37,2016-02-13 21:32:00,
2016-02-13 16:37:00,69.6,55.6,30.11,NNE,22,6.9,6.9,61,0.00,CLR,,0.00,WeatherDisplay:10.37,2016-02-13 21:37:00,
2016-02-13 16:42:00,69.6,56.0,30.11,NNE,17,6.9,6.9,62,0.00,CLR,,0.00,WeatherDisplay:10.37,2016-02-13 21:42:00,
2016-02-13 16:53:00,68.9,56.2,30.12,NNE,13,9.2,9.2,64,0.00,CLR,,0.00,WeatherDisplay:10.37,2016-02-13 21:53:00,
2016-02-13 16:59:00,68.7,56.0,30.12,ENE,65,9.2,9.2,64,0.00,CLR,,0.00,WeatherDisplay:10.37,2016-02-13 21:59:00,
2016-02-13 17:10:00,68.4,55.8,30.12,NNE,28,3.0,10.0,64,0.00,CLR,,0.00,WeatherDisplay:10.37,2016-02-13 22:10:00,
2016-02-13 17:15:00,68.8,55.7,30.12,NNE,25,5.0,12.0,63,0.00,CLR,,0.00,WeatherDisplay:10.37,2016-02-13 22:15:00,
2016-02-13 17:20:00,68.9,55.8,30.12,NNE,27,10.4,10.4,63,0.00,CLR,,0.00,WeatherDisplay:10.37,2016-02-13 22:20:00,
2016-02-13 17:25:00,68.6,55.5,30.12,NNE,28,10.4,10.4,63,0.00,CLR,,0.00,WeatherDisplay:10.37,2016-02-13 22:25:00,
2016-02-13 17:30:00,68.2,55.1,30.12,NNE,15,13.8,13.8,63,0.00,CLR,,0.00,WeatherDisplay:10.37,2016-02-13 22:30:00,
2016-02-13 17:35:00,68.1,55.5,30.12,North,360,10.4,10.4,64,0.00,CLR,,0.00,WeatherDisplay:10.37,2016-02-13 22:35:00,
2016-02-13 17:40:00,67.9,55.7,30.13,North,355,11.5,11.5,65,0.00,CLR,,0.00,WeatherDisplay:10.37,2016-02-13 22:40:00,
2016-02-13 17:46:00,67.6,55.8,30.13,NNE,24,11.5,11.5,66,0.00,CLR,,0.00,WeatherDisplay:10.37,2016-02-13 22:46:00,
2016-02-13 17:52:00,67.4,55.6,30.13,North,10,5.0,12.0,66,0.00,CLR,,0.00,WeatherDisplay:10.37,2016-02-13 22:52:00,
2016-02-13 17:57:00,66.9,56.0,30.13,North,355,9.2,9.2,68,0.00,CLR,,0.00,WeatherDisplay:10.37,2016-02-13 22:57:00,
2016-02-13 18:02:00,66.6,55.7,30.13,NE,35,4.6,4.6,68,0.00,CLR,,0.00,WeatherDisplay:10.37,2016-02-13 23:02:00,
2016-02-13 18:07:00,66.3,55.4,30.13,NNE,25,9.2,9.2,68,0.00,CLR,,0.00,WeatherDisplay:10.37,2016-02-13 23:07:00,
2016-02-13 18:12:00,66.0,55.5,30.13,North,10,0.0,0.0,69,0.00,CLR,,0.00,WeatherDisplay:10.37,2016-02-13 23:12:00,
2016-02-13 18:17:00,65.7,55.6,30.13,NNE,17,4.0,4.0,70,0.00,CLR,,0.00,WeatherDisplay:10.37,2016-02-13 23:17:00,
2016-02-13 18:22:00,65.5,55.5,30.13,North,9,0.0,0.0,70,0.00,CLR,,0.00,WeatherDisplay:10.37,2016-02-13 23:22:00,
2016-02-13 18:27:00,65.2,55.2,30.13,North,360,3.5,3.5,70,0.00,CLR,,0.00,WeatherDisplay:10.37,2016-02-13 23:27:00,
2016-02-13 18:32:00,64.9,55.3,30.13,NNE,22,3.5,3.5,71,0.00,CLR,,0.00,WeatherDisplay:10.37,2016-02-13 23:32:00,
2016-02-13 18:37:00,64.7,55.1,30.13,NNE,15,5.8,5.8,71,0.00,CLR,,0.00,WeatherDisplay:10.37,2016-02-13 23:37:00,
2016-02-13 18:42:00,64.6,55.0,30.13,NNW,344,6.0,6.0,71,0.00,CLR,,0.00,WeatherDisplay:10.37,2016-02-13 23:42:00,
2016-02-13 18:48:00,64.4,55.2,30.13,NE,40,3.5,3.5,72,0.00,CLR,,0.00,WeatherDisplay:10.37,2016-02-13 23:48:00,
2016-02-13 18:53:00,64.3,55.1,30.13,North,355,4.6,4.6,72,0.00,CLR,,0.00,WeatherDisplay:10.37,2016-02-13 23:53:00,
2016-02-13 18:58:00,64.1,55.3,30.14,East,84,2.3,2.3,73,0.00,CLR,,0.00,WeatherDisplay:10.37,2016-02-13 23:58:00,
2016-02-13 19:03:00,63.9,55.1,30.14,North,355,0.0,0.0,73,0.00,CLR,,0.00,WeatherDisplay:10.37,2016-02-14 00:03:00,
2016-02-13 19:08:00,63.7,55.3,30.14,North,355,8.1,8.1,74,0.00,CLR,,0.00,WeatherDisplay:10.37,2016-02-14 00:08:00,
2016-02-13 19:13:00,63.6,55.2,30.14,NNE,18,3.5,3.5,74,0.00,CLR,,0.00,WeatherDisplay:10.37,2016-02-14 00:13:00,
2016-02-13 19:18:00,63.4,55.3,30.14,North,360,0.0,0.0,75,0.00,CLR,,0.00,WeatherDisplay:10.37,2016-02-14 00:18:00,